Location: Santa Clara
(37.3540°N, 121.9540°W)
Time: 09:15:27
(UTC-08:00)

Tiangong - Visible Passes

Search period start: 30 November 2023 00:00
Search period end: 10 December 2023 00:00
Orbit: 374 x 384 km, 41.5° (Epoch: 30 November)

Date Brightness Start Highest point End Pass type
(mag) Time Alt. Az. Time Alt. Az. Time Alt. Az.
30 Nov -2.2 17:48:47 10° WNW 17:51:56 70° NNE 17:53:59 20° E visible
30 Nov 1.5 19:25:54 10° W 19:26:06 11° W 19:26:06 11° W visible
01 Dec -1.1 18:23:55 10° W 18:26:56 42° SSW 18:27:54 31° SSE visible
02 Dec -2.0 17:22:06 10° WNW 17:25:15 77° SSW 17:28:24 10° ESE visible
02 Dec 0.8 18:59:57 10° WSW 19:01:34 13° SW 19:01:58 13° SSW visible
03 Dec 0.1 17:57:18 10° W 17:59:57 25° SSW 18:02:35 10° SSE visible
05 Dec 1.0 17:30:40 10° WSW 17:32:32 15° SW 17:34:25 10° S visible
